[[{"header":{"parameterUnit":"m.s-1","parameterCategory":1,"la1":30.2991,"la2":30.254,"lo1":-89.0895,"lo2":-89.0444,"dy":0.0017,"dx":0.0017,"nx":28,"ny":28,"refTime":"2024-04-02T09:00:00:Z","depth":0,"parameterNumber":2,"parameterNumberName":"U-component_of_WINDS"},"data":[0,0,0,0,0,0,0,0,0,0,0,0,0,0,0,0,0,0,0,0,0,0,0,0,0,0,0,0,0,0,0,0,0,0,0,0,0,0,0,0,0,0,0,0,0,0,0,0,0,0,0,0,0,0,0,0,0,0,6.4018,6.4019,0,6.4158,6.416,6.4161,6.4093,6.409,6.4086,6.4083,6.4226,6.4233,6.424,0,0,0,0,0,0,0,0,0,0,0,0,0,6.3692,6.3698,6.4018,6.402,6.4021,6.4158,6.416,6.4162,6.4094,6.409,6.4085,6.4081,6.4224,6.4232,6.4241,0,0,0,0,0,0,0,0,0,0,0,0,0,6.3833,6.37,6.4017,6.4004,6.4004,6.4158,6.416,6.4162,6.4095,6.4089,6.4084,6.4079,6.4221,6.4232,6.4242,6.4417,0,0,6.4275,6.428,0,0,0,0,0,0,0,0,6.3825,6.3845,6.4004,6.4005,6.4006,6.4103,6.4098,6.4248,6.4096,6.406,6.4083,6.4076,6.419,6.4203,6.4241,6.4424,6.443,6.4276,6.4283,6.4287,6.429,0,0,0,0,0,0,0,6.3815,6.3838,6.4073,6.4006,6.4007,6.3991,6.4005,6.4126,6.4154,6.4063,6.4058,6.4076,6.4189,6.4231,6.4244,6.4432,6.4276,6.4285,6.4292,6.4296,6.4768,6.4773,0,0,0,0,0,0,6.3806,6.3831,6.4069,6.4077,6.39,6.4001,6.4017,6.4077,6.4152,6.4158,6.4081,6.4072,6.4215,6.4231,6.4248,6.4459,6.4287,6.4297,6.4304,6.4762,6.4769,6.4775,0,0,0,0,0,0,6.3799,6.3828,6.4063,6.3953,6.3982,6.4013,6.4081,6.4083,6.4124,6.4165,6.417,6.4118,6.4211,6.4233,6.4376,6.4463,6.4302,6.4312,6.4754,6.4764,6.4772,6.4881,0,0,0,0,0,0,6.379,6.3826,6.3892,6.3955,6.3988,6.4188,6.4086,6.4089,6.4143,6.4134,6.4202,6.4208,6.4209,6.436,6.4387,6.4475,6.432,6.4747,6.4759,6.4769,6.487,6.4893,6.4912,0,0,0,0,0,6.3779,6.3917,6.3896,6.3925,6.4072,6.4194,6.4212,6.4211,6.415,6.4218,6.4244,6.4206,6.4449,6.4376,6.4405,6.4497,6.4741,6.4755,6.4768,6.486,6.4888,6.4912,0,0,0,0,0,0,6.3863,6.3925,6.3902,6.4065,6.4125,6.4182,6.4266,6.424,6.4318,6.4306,6.4301,6.4317,6.4465,6.4495,6.4412,6.4671,6.4586,6.4606,6.4646,6.4673,6.4694,6.4683,6.4329,0,0,0,0,0,6.3901,6.3994,6.4043,6.4182,6.4213,6.4235,6.4288,6.4282,6.4343,6.4368,6.4405,6.4467,6.4557,6.4617,6.4702,6.4874,6.4888,6.4952,6.4974,6.4991,6.5008,6.5102,6.5132,6.482,6.482,6.482,0,0,6.3979,6.4025,6.4084,6.42,6.4246,6.4343,6.4257,6.4363,6.4436,6.4384,6.4521,6.4551,6.4619,6.4778,6.485,6.4808,6.5098,6.5008,6.5022,6.503,6.5119,6.5149,6.5175,6.4829,6.4828,6.4826,0,0,6.4172,6.4216,6.4336,6.4384,6.4454,6.4468,6.4498,6.456,6.4577,6.4715,6.4679,6.4765,6.4921,6.4971,6.5017,6.5232,6.5199,6.526,6.5371,6.5462,6.5487,6.5509,6.5585,6.5613,6.5277,6.5277,6.5278,0,6.426,6.4406,6.4402,6.4512,6.4565,6.4523,6.4646,6.4693,6.4787,6.4825,6.4777,6.4973,6.5016,6.5186,6.5238,6.5277,6.531,6.5252,6.5484,6.5506,6.5526,6.5599,6.5628,6.5284,6.5284,6.5283,6.5282,0,6.4511,6.4613,6.4702,6.4795,6.4858,6.4974,6.4988,6.5053,6.5042,6.5061,6.5202,6.5253,6.5348,6.5388,6.5378,6.5558,6.553,6.5484,6.5397,6.5562,6.5631,6.5659,6.5294,6.5292,6.529,6.5288,0,0,6.476,6.485,6.4883,6.4925,6.5001,6.5079,6.5194,6.5288,6.5343,6.5411,6.5507,6.5641,6.5598,6.5651,6.5646,6.5727,6.5895,6.5671,6.5672,6.5711,6.6096,6.613,6.6163,6.5874,6.5879,6.5883,6.609,0,6.4958,6.5158,6.5159,6.5344,6.5438,6.5401,6.5501,6.5559,6.558,6.5664,6.5687,6.5782,6.5719,6.5751,6.5829,6.5858,6.5972,6.5843,6.5963,6.5968,6.5947,6.6199,6.6235,6.6428,6.6117,6.6122,6.6125,0,6.5215,6.5292,6.5486,6.5549,6.5589,6.5678,6.5765,6.5845,6.591,6.592,6.598,6.5963,6.6081,6.5992,6.6154,6.6066,6.6116,6.6138,6.6145,6.6156,6.6056,6.6216,6.6489,6.6518,6.6167,6.6164,6.6161,0,6.5377,6.5529,6.5665,6.5702,6.5779,6.5843,6.5878,6.5937,6.5994,6.607,6.6107,6.6196,6.6244,6.6314,6.6322,6.6257,6.6486,6.6397,6.6497,6.6497,6.6546,6.6543,6.6831,6.658,6.6579,6.6579,6.6578,0,6.5598,6.5719,6.5739,6.5822,6.5957,6.5957,6.609,6.612,6.6173,6.6262,6.6236,6.6321,6.6327,6.6414,6.6421,6.6555,6.6577,6.6588,6.6589,6.6591,6.6589,6.6623,6.6609,6.6586,6.6585,6.6583,6.6582,0,6.5801,6.582,6.5966,6.6027,6.6045,6.6141,6.6194,6.6274,6.6294,6.6407,6.6434,6.6464,6.6566,6.6581,6.67,6.6705,6.6865,6.6852,6.6843,6.6841,6.694,6.6931,6.7259,6.7303,6.7023,6.7026,6.7028,0,6.5941,6.6033,6.6104,6.6162,6.6201,6.6294,6.6352,6.6357,6.6418,6.65,6.6571,6.667,6.6748,6.6912,6.6945,6.7036,6.7025,6.7134,6.7038,6.7037,6.7026,6.7021,6.703,6.7152,6.7155,6.7157,6.7159,0,6.6187,6.6192,6.6276,6.6365,6.6435,6.6505,6.6571,6.662,6.6633,6.6704,6.6807,6.6869,6.699,6.7089,6.7179,6.7215,6.7191,6.719,6.7217,6.722,6.7211,6.7217,6.6893,6.7182,6.7179,6.7178,6.7177,6.7176,6.6363,6.6443,6.6506,6.6601,6.6652,6.6714,6.6793,6.6823,6.6909,6.7008,6.7006,6.712,6.7184,6.7303,6.7345,6.7435,6.7399,6.744,6.745,6.746,6.7469,6.7198,6.7451,6.7451,6.745,6.7449,6.7449,0,6.6607,6.6646,6.6734,6.6828,6.6903,6.6873,6.6945,6.701,6.7111,6.7172,6.7251,6.737,6.7466,6.7508,6.7602,6.7665,6.7656,6.769,6.7685,6.7694,6.7496,6.7462,6.7696,6.7696,6.7696,6.7696,6.7696,6.7696,6.6743,6.6878,6.689,6.705,6.7088,6.7199,6.7243,6.7301,6.735,6.7485,6.7564,6.7591,6.7645,6.7743,6.783,6.784,6.7875,6.7915,6.7919,6.7733,6.7708,6.7684,6.7652,6.7922,6.7923,6.811,6.8112,6.8113]},{"header":{"parameterUnit":"m.s-1","parameterCategory":1,"la1":30.2991,"la2":30.254,"lo1":-89.0895,"lo2":-89.0444,"dy":0.0017,"dx":0.0017,"nx":28,"ny":28,"refTime":"2024-04-02T09:00:00:Z","depth":0,"parameterNumber":3,"parameterNumberName":"V-component_of_WINDS"},"data":[0,0,0,0,0,0,0,0,0,0,0,0,0,0,0,0,0,0,0,0,0,0,0,0,0,0,0,0,0,0,0,0,0,0,0,0,0,0,0,0,0,0,0,0,0,0,0,0,0,0,0,0,0,0,0,0,0,0,-2.574,-2.5741,0,-2.5832,-2.5833,-2.5834,-2.5847,-2.5846,-2.5845,-2.5845,-2.5938,-2.5941,-2.5944,0,0,0,0,0,0,0,0,0,0,0,0,0,-2.5574,-2.5577,-2.574,-2.5741,-2.5742,-2.5832,-2.5833,-2.5835,-2.5847,-2.5846,-2.5845,-2.5844,-2.5937,-2.5941,-2.5945,0,0,0,0,0,0,0,0,0,0,0,0,0,-2.5654,-2.5578,-2.574,-2.5759,-2.5762,-2.5832,-2.5833,-2.5835,-2.5847,-2.5846,-2.5845,-2.5844,-2.5936,-2.594,-2.5945,-2.6001,0,0,-2.596,-2.5962,0,0,0,0,0,0,0,0,-2.565,-2.566,-2.5755,-2.5758,-2.5761,-2.5827,-2.5809,-2.5891,-2.5848,-2.5815,-2.5844,-2.5843,-2.5902,-2.591,-2.593,-2.6006,-2.601,-2.5961,-2.5964,-2.5966,-2.5967,0,0,0,0,0,0,0,-2.5644,-2.5656,-2.5776,-2.5757,-2.576,-2.5763,-2.5773,-2.5825,-2.5864,-2.5818,-2.5819,-2.583,-2.5903,-2.5925,-2.5932,-2.6011,-2.5961,-2.5965,-2.5968,-2.597,-2.6139,-2.614,0,0,0,0,0,0,-2.5635,-2.5652,-2.5773,-2.5779,-2.5701,-2.5767,-2.5779,-2.5807,-2.5864,-2.5871,-2.5831,-2.583,-2.5917,-2.5926,-2.5935,-2.6005,-2.5966,-2.597,-2.5973,-2.6137,-2.6139,-2.614,0,0,0,0,0,0,-2.5631,-2.5646,-2.577,-2.5716,-2.5732,-2.5772,-2.5804,-2.581,-2.5831,-2.5874,-2.5881,-2.5845,-2.5916,-2.5928,-2.5985,-2.6008,-2.5973,-2.5977,-2.6135,-2.6138,-2.614,-2.6144,0,0,0,0,0,0,-2.5627,-2.5644,-2.5666,-2.5716,-2.5735,-2.5818,-2.5805,-2.5812,-2.584,-2.584,-2.5889,-2.5896,-2.5916,-2.5978,-2.599,-2.6014,-2.5981,-2.6133,-2.6136,-2.6139,-2.6142,-2.6146,-2.615,0,0,0,0,0,-2.5621,-2.5663,-2.5667,-2.5682,-2.5763,-2.5819,-2.583,-2.5852,-2.5841,-2.5864,-2.5891,-2.5895,-2.6004,-2.5983,-2.5997,-2.6023,-2.6132,-2.6135,-2.6139,-2.614,-2.6145,-2.615,0,0,0,0,0,0,-2.5614,-2.567,-2.5675,-2.5735,-2.5773,-2.5821,-2.585,-2.5857,-2.5897,-2.5895,-2.5921,-2.5932,-2.5988,-2.6012,-2.5988,-2.6081,-2.6067,-2.6073,-2.6063,-2.6069,-2.6072,-2.6065,-2.5985,0,0,0,0,0,-2.562,-2.5662,-2.5708,-2.5757,-2.5775,-2.5809,-2.5835,-2.5849,-2.5888,-2.5904,-2.5936,-2.5974,-2.6017,-2.6044,-2.6086,-2.6146,-2.6157,-2.6171,-2.6175,-2.6178,-2.6183,-2.6217,-2.6223,-2.6152,-2.6152,-2.6152,0,0,-2.5632,-2.5668,-2.5692,-2.5757,-2.5787,-2.5829,-2.5822,-2.5867,-2.5899,-2.5911,-2.5966,-2.5991,-2.6035,-2.6094,-2.6121,-2.6115,-2.6205,-2.6182,-2.6184,-2.6188,-2.6221,-2.6228,-2.6234,-2.6154,-2.6154,-2.6153,0,0,-2.5675,-2.5707,-2.5751,-2.5782,-2.5828,-2.5851,-2.5861,-2.591,-2.5927,-2.5983,-2.5993,-2.6031,-2.6104,-2.6135,-2.6161,-2.6217,-2.6222,-2.623,-2.625,-2.6283,-2.6288,-2.6293,-2.6313,-2.632,-2.6235,-2.6235,-2.6235,0,-2.5684,-2.5748,-2.5772,-2.5817,-2.5845,-2.5859,-2.5904,-2.5932,-2.599,-2.6009,-2.6002,-2.6094,-2.6125,-2.6191,-2.6205,-2.6225,-2.6238,-2.6224,-2.6286,-2.6291,-2.6296,-2.6315,-2.6323,-2.6236,-2.6236,-2.6236,-2.6235,0,-2.5757,-2.5801,-2.5831,-2.5887,-2.5919,-2.5963,-2.5994,-2.6023,-2.6035,-2.6058,-2.6115,-2.6153,-2.6203,-2.622,-2.6231,-2.6288,-2.6283,-2.628,-2.6266,-2.6303,-2.6321,-2.6329,-2.6237,-2.6236,-2.6236,-2.6236,0,0,-2.5797,-2.5867,-2.5877,-2.5903,-2.5956,-2.5991,-2.6036,-2.6085,-2.611,-2.6149,-2.6188,-2.625,-2.6249,-2.6277,-2.6293,-2.6322,-2.6364,-2.6316,-2.6317,-2.6323,-2.6428,-2.6429,-2.6437,-2.6368,-2.6369,-2.6371,-2.6424,0,-2.5846,-2.5928,-2.5951,-2.602,-2.6061,-2.6075,-2.6115,-2.6152,-2.6175,-2.6213,-2.6239,-2.6283,-2.6278,-2.6295,-2.6324,-2.6352,-2.6385,-2.6349,-2.6403,-2.6405,-2.6391,-2.6447,-2.6448,-2.6497,-2.6432,-2.6433,-2.6434,0,-2.5914,-2.5956,-2.6028,-2.6076,-2.6095,-2.613,-2.6177,-2.6214,-2.6256,-2.6271,-2.6304,-2.6317,-2.6365,-2.6349,-2.6416,-2.6391,-2.6415,-2.6432,-2.6434,-2.6439,-2.6421,-2.6453,-2.6513,-2.652,-2.6446,-2.6445,-2.6444,0,-2.5936,-2.601,-2.6063,-2.6085,-2.6142,-2.6167,-2.6192,-2.6233,-2.6261,-2.6302,-2.6321,-2.6367,-2.6392,-2.6428,-2.6454,-2.644,-2.6518,-2.6504,-2.6531,-2.6531,-2.6546,-2.6544,-2.661,-2.6563,-2.6563,-2.6563,-2.6562,0,-2.5987,-2.6031,-2.6073,-2.6106,-2.6156,-2.6182,-2.6231,-2.6257,-2.6293,-2.6331,-2.6346,-2.6381,-2.6413,-2.6453,-2.6473,-2.6525,-2.6536,-2.655,-2.6554,-2.6548,-2.6546,-2.6563,-2.656,-2.6564,-2.6564,-2.6564,-2.6563,0,-2.6019,-2.605,-2.6108,-2.6158,-2.6172,-2.6206,-2.6249,-2.6281,-2.6306,-2.6354,-2.6366,-2.6405,-2.6452,-2.6481,-2.6541,-2.6555,-2.6612,-2.6616,-2.6598,-2.66,-2.6625,-2.6622,-2.6703,-2.6714,-2.666,-2.6661,-2.6661,0,-2.605,-2.6084,-2.6138,-2.6165,-2.619,-2.6233,-2.6262,-2.629,-2.632,-2.6371,-2.6397,-2.6445,-2.6485,-2.6561,-2.6594,-2.664,-2.6644,-2.667,-2.6651,-2.6644,-2.6644,-2.6641,-2.6645,-2.6672,-2.6673,-2.6673,-2.6673,0,-2.6101,-2.6114,-2.6156,-2.6203,-2.6237,-2.6275,-2.6314,-2.6335,-2.6369,-2.6402,-2.6451,-2.6482,-2.6544,-2.6592,-2.6641,-2.6667,-2.6676,-2.6679,-2.6688,-2.6681,-2.6669,-2.6675,-2.6605,-2.6677,-2.6676,-2.6676,-2.6676,-2.6676,-2.6132,-2.6163,-2.6206,-2.6252,-2.6284,-2.632,-2.6353,-2.6382,-2.6423,-2.6475,-2.649,-2.6541,-2.6583,-2.665,-2.6677,-2.6717,-2.6714,-2.6726,-2.6729,-2.6732,-2.6732,-2.6663,-2.6727,-2.6727,-2.6727,-2.6726,-2.6726,0,-2.6184,-2.6212,-2.6254,-2.6307,-2.6344,-2.635,-2.6393,-2.6423,-2.6467,-2.6506,-2.6546,-2.6602,-2.6649,-2.6686,-2.6734,-2.6759,-2.6765,-2.6771,-2.6769,-2.6775,-2.6733,-2.672,-2.6766,-2.6766,-2.6766,-2.6766,-2.6766,-2.6766,-2.6214,-2.6267,-2.6286,-2.6355,-2.6383,-2.6434,-2.6457,-2.649,-2.6521,-2.6584,-2.6623,-2.6647,-2.6685,-2.6737,-2.678,-2.679,-2.6806,-2.6812,-2.6822,-2.6782,-2.6778,-2.6773,-2.6762,-2.6815,-2.6815,-2.6861,-2.6861,-2.6861]}]]